Regional Weather Roundup
Issued by NWS

Home | Current Version | Previous Version | Graphics & Text | Print | Product List | Glossary On
Versions: 1 2 3 4 5 6 7 8 9 10 11 12 13 14 15 16 17 18 19 20 21 22 23 24 25 26 27 28 29 30 31 32 33 34 35 36 37 38 39 40 41 42 43 44 45 46 47 48 49 50
000
ASUS43 KOAX 271610
RWRNE

WEATHER ROUNDUP FOR NEBRASKA
NATIONAL WEATHER SERVICE OMAHA NE
1100 AM CDT SAT AUG 27 2016

NOTES: SATELLITE DATA IS BEING USED TO AUGMENT CLOUD COVER ABOVE
       12000 FEET.
       "FAIR" INDICATES FEW OR NO CLOUDS BELOW 12,000 FEET WITH NO
       SIGNIFICANT WEATHER AND/OR OBSTRUCTIONS TO VISIBILITY.

  * THESE STATIONS DO NOT REPORT WEATHER SUCH AS RAIN...SNOW OR FOG.

NEZ001>004-019>022-054>056-271700-
NEBRASKA PANHANDLE

CITY           SKY/WX    TMP DP  RH WIND       PRES   REMARKS
SCOTTSBLUFF    PTSUNNY   61  55  81 VRB3      30.07F
ALLIANCE       PTSUNNY   61  55  81 S8        30.06F
CHADRON        SUNNY     67  54  63 SW8       30.02F
KIMBALL        SUNNY     67  53  59 NW8       30.12R
SIDNEY         MOSUNNY   63  57  81 S3        30.10S
$$

NEZ057>060-069>072-079>082-271700-
SOUTHWEST NEBRASKA

CITY           SKY/WX    TMP DP  RH WIND       PRES   REMARKS
NORTH PLATTE   MOSUNNY   67  58  72 SE8       30.07F
IMPERIAL       MOSUNNY   65  60  84 S10       30.09S
LEXINGTON      SUNNY     68  59  72 SE3       30.07F
MCCOOK         SUNNY     69  60  73 S6        30.05F
OGALLALA       CLOUDY    68  60  76 SW6       30.07S
$$

NEZ005>010-023>029-035>040-094-271700-
NORTH CENTRAL NEBRASKA

CITY           SKY/WX    TMP DP  RH WIND       PRES   REMARKS
VALENTINE      SUNNY     71  54  54 S12       30.02F
AINSWORTH      SUNNY     69  58  68 SW6       30.03F
BROKEN BOW     SUNNY     70  59  68 S8        30.05F
O`NEILL        CLOUDY    67  62  85 SW6       30.04F
ORD            PTSUNNY   68  60  75 E6        30.02F
THEDFORD       SUNNY     72  58  62 SW6       30.05S
$$

NEZ041-046>049-061>064-073>077-083>087-271700-
SOUTH CENTRAL NEBRASKA

CITY           SKY/WX    TMP DP  RH WIND       PRES   REMARKS
GRAND ISLAND   SUNNY     69  61  75 NW5       30.05F
AURORA         SUNNY     66  66 100 CALM      30.05S
HASTINGS       MOSUNNY   72  59  63 CALM      30.07R
HEBRON         MOSUNNY   73  65  75 CALM      30.05S
HOLDREGE       SUNNY     69  58  68 CALM      30.07S
KEARNEY *      SUNNY     72  57  60 W3        30.05F
YORK           SUNNY     70  63  78 CALM      30.05S
$$

NEZ011>018-030>034-042>045-271700-
NORTHEAST NEBRASKA

CITY           SKY/WX    TMP DP  RH WIND       PRES   REMARKS
NORFOLK        PTSUNNY   69  61  75 NW5       30.03S
ALBION         MOSUNNY   68  63  84 S3        30.03F
BLAIR          PTSUNNY   70  68  95 SW5       30.03S
FREMONT        PTSUNNY   73  66  80 W5        30.04R
TEKAMAH        CLOUDY    70  65  84 CALM      30.02F
WAYNE          CLOUDY    70  64  82 SW3       30.03S
$$

NEZ050>053-065>068-078-088>093-271700-
SOUTHEAST NEBRASKA

CITY           SKY/WX    TMP DP  RH WIND       PRES   REMARKS
LINCOLN        PTSUNNY   75  65  70 S3        30.04S
OMAHA EPPLEY   MOSUNNY   75  66  73 S5        30.02F
BEATRICE       CLOUDY    72  65  79 CALM      30.05R
FALLS CITY     CLOUDY    75  67  76 NW7       30.03R
NEBRASKA CITY  CLOUDY    72  70  93 W3        30.04S
PLATTSMOUTH    CLOUDY    72  68  86 W3        30.04S
$$

NEZ044-045-051>053-067-271700-
OMAHA AREA

CITY           SKY/WX    TMP DP  RH WIND       PRES   REMARKS
OMAHA EPPLEY   MOSUNNY   75  66  73 S5        30.02F
BLAIR          PTSUNNY   70  68  95 SW5       30.03S
FREMONT        PTSUNNY   73  66  80 W5        30.04R
MILLARD        MOSUNNY   74  66  77 CALM      30.02F
OFFUTT AFB     CLOUDY    73  66  78 W3        30.02F
PLATTSMOUTH    CLOUDY    72  68  86 W3        30.04S
WAHOO          PTSUNNY   71  65  80 CALM      30.04R
$$



USA.gov is the U.S. government's official web portal to all federal, state and local government web resources and services.